Cloud_Cover
12 20 56 64 85 96 100 49 10 76 61 5 5 5 100 1 0 0 0 0 0 0 0 0 0 0 0 0 0 0 8 100 100 100 93 9 11 8 5 5 16 85 1 0
54 74 100 100 100 100 100 97 88 5 5 5 4 1 5 1 0 0 0 0 0 0 0 0 0 0 5 5 0 4 48 84 99 100 100 21 49 25 5 53 8 9 27 5
5 35 100 100 100 100 100 100 74 25 5 5 2 0 5 4 0 0 0 0 0 0 0 0 1 6 100 99 68 99 100 100 96 55 87 20 5 86 67 79 6 7 12 8
91 100 100 64 94 92 34 14 5 5 5 5 5 11 5 1 0 0 2 2 0 12 12 42 74 52 34 100 100 100 100 100 100 100 83 98 85 80 94 99 67 5 5 5
48 99 98 100 96 18 24 99 20 5 5 5 5 30 5 1 82 100 92 52 75 88 100 100 100 54 68 92 100 100 100 89 100 52 73 47 100 100 100 100 98 46 40 20
77 30 25 55 75 98 100 100 99 80 23 71 5 5 4 100 100 100 100 100 100 100 100 100 100 100 100 100 100 100 100 100 100 100 100 81 92 100 100 100 100 100 100 100
25 18 93 86 77 69 40 100 100 70 83 37 5 5 86 100 100 100 100 100 100 100 100 100 100 100 100 100 100 100 100 100 100 100 100 100 100 100 100 100 100 100 100 100
75 98 100 100 100 100 100 100 100 20 17 7 5 4 98 100 95 88 100 100 100 100 100 100 100 100 100 100 100 100 100 100 100 100 100 100 100 100 100 100 100 100 100 100
100 57 100 100 100 100 100 100 90 98 90 93 5 94 100 100 100 100 100 96 100 100 100 100 100 100 100 100 100 100 100 100 100 100 100 100 100 100 100 100 100 100 100 100
97 91 51 37 30 23 40 32 79 98 83 78 4 30 47 100 100 100 100 100 100 100 100 100 100 100 100 100 100 100 100 100 100 100 100 100 100 100 100 100 100 100 100 100
78 78 43 98 32 7 5 52 73 62 50 24 37 22 5 100 100 100 100 100 100 100 100 100 100 100 100 100 100 100 100 100 100 100 100 100 100 100 100 100 100 100 100 100
31 89 44 82 99 63 90 88 100 82 66 79 54 18 90 58 99 100 100 100 100 100 100 100 100 100 100 100 100 100 100 100 100 100 100 100 100 100 100 100 100 100 100 100
20 96 52 22 10 31 99 95 100 100 46 17 58 19 85 96 100 97 100 100 100 100 100 100 100 100 100 100 100 100 100 100 100 100 100 100 100 100 100 100 100 100 100 100
86 97 99 83 47 5 30 92 100 100 75 99 29 28 99 100 99 37 100 100 100 100 100 100 100 100 100 100 100 100 100 100 100 100 100 100 100 100 100 100 100 100 98 96
100 100 100 100 72 26 58 100 100 100 100 100 55 19 96 37 20 78 92 76 91 100 100 100 100 100 100 100 100 100 100 100 100 100 100 100 100 100 100 100 100 100 100 94
100 100 100 100 69 90 76 100 97 100 67 100 100 94 69 97 16 88 100 98 100 100 100 100 100 100 100 100 100 100 100 83 79 92 94 80 100 99 100 100 82 86 65 43
100 100 100 79 43 98 100 8 86 100 100 95 96 36 100 98 82 100 100 100 71 98 100 100 100 100 100 99 100 100 100 97 95 92 100 99 90 98 95 69 75 100 86 78
94 98 100 97 88 97 3 39 100 100 100 88 26 33 98 81 89 100 92 95 56 11 95 100 100 100 100 100 100 100 99 90 100 100 100 100 96 100 100 100 94 99 100 91
96 99 98 100 90 14 6 74 87 100 77 93 65 97 100 100 100 93 100 98 86 36 85 98 100 94 76 91 92 97 84 100 97 100 100 100 100 100 100 100 100 99 69 86
87 100 100 98 98 75 28 100 100 100 44 98 66 100 100 100 78 82 96 100 100 95 93 86 82 85 56 71 87 87 99 100 100 100 100 100 100 100 100 100 100 48 77 77
98 100 69 100 91 6 98 100 96 62 100 82 89 86 100 90 77 100 100 100 96 98 72 64 74 77 90 62 75 60 81 92 100 100 100 100 100 99 100 100 100 100 100 100
78 98 69 97 98 79 100 100 94 100 100 98 93 100 100 100 100 100 93 100 100 95 69 62 74 84 82 88 99 100 100 100 100 100 100 100 100 100 100 100 100 100 100 100
51 12 88 81 100 100 100 100 100 100 100 84 100 100 100 100 95 93 100 98 75 94 97 90 54 95 100 100 77 100 100 100 100 100 100 100 100 100 100 100 100 100 100 100
77 99 78 97 100 100 100 100 100 100 100 100 100 98 100 92 97 96 92 86 93 98 85 98 100 100 100 100 100 100 100 100 100 100 100 100 100 100 100 100 100 100 100 100
100 100 100 100 100 100 100 100 100 100 100 100 100 100 96 39 91 75 96 93 80 80 87 100 100 100 100 100 100 100 100 100 100 100 100 100 100 100 100 100 100 100 100 100
100 100 84 99 85 100 100 100 100 100 100 100 100 86 46 18 97 78 100 76 83 100 100 100 100 100 100 100 100 100 100 100 100 100 100 100 100 100 100 100 100 100 100 100